Flag for Germany Weather past 2 weeks in Meiningen, Thuringia, Germany

Now
45 °F

Fog.


Feels Like: 45 °F
Forecast: 39 / 56 °F
Wind: 2 mph from South

Location: Meiningen

Current Time: Oct 26, 2014 at 9:00:32 AM

Latest Report: Oct 26, 2014 at 8:00 AM


Visibility: 0 mi

Pressure: 30.34 "Hg

Humidity: 100%

Dew point: 45 °F

Location of MeiningenLocation

Historic Weather in Meiningen — Graph

°F

Meiningen temperature yesterday

Maximum temperature yesterday: 48 °F (at 3:00 PM)
Minimum temperature yesterday: 41 °F (at 3:00 AM)
Average temperature yesterday: 44 °F

Past Weeks' High & Low Weather Summary

 TemperatureHumidityPressure
High62 °F (Oct 20, 1:00 AM)100% (Oct 12, 6:00 AM)30.34 "Hg (Oct 12, 6:00 AM)
Low35 °F (Oct 24, 4:00 AM)52% (Oct 15, 3:00 PM)29.55 "Hg (Oct 21, 8:00 PM)
Average51 °F89%29.98 "Hg
* Reported Oct 11 9:00 AM — Oct 26 8:00 AM, Meiningen, Weather by CustomWeather, © 2014

Note: Actual official high and low records may vary slightly from our data, if they occured in-between our weather recording intervals... More about our weather records

Advertising

Meiningen weather history for previous 24 hours

 ConditionsComfort  
Time TempWeatherWind HumidityBarometerVisibility
8:00 AM
Oct 26
45 °FFog.2 mph100%30.34 "Hg0 mi
7:00 AM45 °FFog.2 mph99%30.32 "Hg0 mi
6:00 AM45 °FFog.2 mph100%30.32 "Hg0 mi
5:00 AM45 °FLow clouds.2 mph100%30.31 "Hg0 mi
3:00 AM45 °FLow clouds.2 mph99%30.29 "Hg0 mi
2:00 AM46 °FFog.2 mph97%30.30 "Hg1 mi
2:00 AM46 °FFog.2 mph95%30.29 "Hg2 mi
1:00 AM46 °FFog.3 mph93%30.27 "Hg3 mi
12:00 AM46 °FFog.3 mph93%30.27 "Hg4 mi
10:00 PM
Oct 25
46 °FFog.3 mph93%30.24 "Hg3 mi
9:00 PM46 °FFog.2 mph92%30.23 "Hg4 mi
8:00 PM47 °FFog.2 mph91%30.22 "Hg4 mi
7:00 PM47 °FFog.5 mph91%30.21 "Hg4 mi
6:00 PM47 °FFog.5 mph88%30.18 "Hg4 mi
5:00 PM48 °FOvercast.2 mph85%30.18 "Hg6 mi
4:00 PM48 °FOvercast.3 mph84%30.17 "Hg6 mi
3:00 PM48 °FLow clouds.3 mph83%30.16 "Hg4 mi
2:00 PM46 °FLow clouds.3 mph92%30.17 "Hg3 mi
1:00 PM45 °FRain. Low clouds.3 mph93%30.17 "Hg2 mi
12:00 PM44 °FRain. Low clouds.3 mph93%30.17 "Hg2 mi
11:00 AM43 °FRain. Low clouds.3 mph95%30.18 "Hg2 mi
10:00 AM42 °FLight rain. Low clouds.3 mph97%30.17 "Hg2 mi
9:00 AM42 °FLight rain. Low clouds.2 mph98%30.16 "Hg2 mi
Weather by CustomWeather, © 2014

See weather overviewHow to use our weather pages